Wind_Speed
11 9 7 6 6 5 3 3 1 1 1 1 2 3 4 5 5 5 5 5 5 6 5 4 4 4 5 5 5 6 6 6 6 5 5 5 5 5 5 5 4 4 4 4
12 10 9 9 8 7 5 5 4 4 3 3 1 2 2 3 4 4 4 4 4 4 4 3 3 3 3 4 4 5 5 6 6 5 5 5 5 5 5 5 4 5 4 4
13 11 11 11 10 9 9 7 7 7 6 5 4 3 3 3 3 5 4 4 4 3 3 2 2 2 2 3 4 4 4 5 5 5 4 4 5 5 6 6 6 5 4 4
14 14 14 13 12 11 10 9 8 7 7 6 5 5 4 5 5 6 5 4 3 3 3 2 2 1 1 1 2 3 4 4 5 5 4 4 5 5 6 6 6 5 5 5
16 16 16 15 14 13 12 12 10 9 8 8 7 7 6 6 7 6 6 5 4 4 4 3 3 2 2 2 2 2 3 4 4 4 4 4 5 6 6 7 7 6 6 6
18 17 16 16 15 14 14 13 12 12 11 10 9 10 8 7 7 7 7 6 5 4 4 4 4 3 2 3 4 3 4 4 4 5 5 5 5 6 7 7 7 7 7 6
18 18 17 16 16 15 15 14 13 13 13 13 12 11 9 7 7 8 8 7 7 5 5 5 4 4 4 4 4 5 5 5 5 6 7 6 7 7 8 8 8 8 7 7
18 18 18 17 17 17 16 15 15 15 15 15 14 13 10 8 8 9 8 7 7 6 5 5 5 5 5 6 6 7 6 6 6 7 8 8 7 7 8 8 9 8 8 8
18 18 18 18 18 17 17 16 15 16 16 16 15 14 12 10 9 10 9 8 7 6 6 6 6 7 7 8 8 7 7 7 7 8 9 7 7 8 8 8 9 9 9 9
19 18 18 19 19 19 19 17 16 16 17 16 16 15 12 10 10 10 10 9 8 8 8 7 7 7 8 9 9 8 8 9 8 8 9 9 9 9 9 9 10 10 10 10
19 19 18 19 20 20 20 18 17 17 17 17 17 15 13 11 10 10 10 10 10 9 8 8 8 9 10 11 11 11 10 10 10 10 10 9 9 10 10 10 11 12 12 12
21 21 20 20 20 20 20 19 18 18 18 18 18 16 14 13 12 12 11 11 11 10 10 10 10 11 12 13 14 13 13 13 13 12 12 11 11 11 11 12 12 12 13 14
22 23 21 21 21 21 21 20 19 19 19 19 19 16 15 15 14 14 13 12 12 12 12 12 13 13 14 15 15 15 15 14 14 14 13 13 13 13 13 13 13 13 14 14
24 25 24 23 22 22 22 21 21 21 21 20 19 17 15 15 15 15 14 14 14 14 14 14 15 15 16 16 15 16 16 14 15 15 16 15 14 14 15 14 15 15 15 16
26 26 25 24 24 24 24 23 22 22 22 22 20 18 16 16 17 16 16 16 15 15 16 16 16 16 16 16 16 16 16 16 16 16 17 17 17 17 16 16 17 17 17 18
28 28 27 26 25 25 25 25 24 23 22 22 22 20 19 18 18 18 18 17 16 17 17 17 17 17 17 17 17 18 18 18 18 18 18 19 19 19 18 19 20 20 20 20
29 29 29 28 27 27 27 25 24 23 23 23 23 22 20 19 19 20 20 19 19 19 18 17 17 17 18 19 19 19 20 21 21 21 21 21 21 22 21 21 21 21 22 23
31 30 30 29 29 30 27 26 26 25 24 24 24 23 22 22 22 21 21 21 20 20 20 19 18 19 20 21 22 21 21 22 23 23 23 23 24 24 23 24 24 24 24 25
32 32 32 31 31 31 29 28 28 27 27 26 25 25 25 24 24 23 23 23 23 22 22 21 20 21 23 23 24 24 24 25 25 24 24 25 25 26 25 25 25 25 25 25
32 33 33 33 33 32 30 29 29 29 28 27 27 26 26 27 27 25 24 25 25 24 24 24 23 23 24 25 25 26 27 26 27 27 27 28 27 27 26 26 27 27 27 27
32 33 33 34 34 34 31 30 30 31 29 28 28 28 28 28 28 27 26 27 26 26 26 25 25 25 25 26 27 27 28 28 28 29 29 29 29 28 27 27 28 28 29 29
33 33 33 33 35 35 33 32 32 32 31 30 30 30 30 30 30 29 28 28 28 28 27 27 27 28 28 28 29 29 29 30 30 30 29 29 30 29 28 29 29 30 30 31
33 33 33 34 35 35 34 33 33 33 33 32 31 31 31 30 30 30 29 30 30 30 29 29 29 30 30 29 30 30 31 31 31 31 30 31 31 31 31 31 30 30 31 31
33 33 34 34 34 34 34 33 33 34 34 34 33 32 32 31 30 30 30 30 31 32 30 30 29 30 29 29 31 32 32 31 32 32 31 31 31 31 32 31 31 31 30 31
35 34 34 34 33 34 34 33 34 34 35 35 34 33 33 31 30 30 31 31 31 31 30 31 31 30 30 30 30 31 31 31 32 31 31 31 31 31 31 31 31 32 32 32
33 34 34 33 33 34 33 33 32 33 33 33 34 33 33 33 32 32 31 31 31 32 31 31 32 32 32 31 31 31 31 32 31 31 31 31 31 31 31 30 31 32 32 32
Wind_Direction
211 207 196 199 209 212 223 235 252 330 358 15 42 29 18 15 17 22 23 26 25 22 23 33 44 51 51 52 57 58 54 52 47 40 34 36 38 36 33 31 21 7 356 349
216 215 216 219 225 227 230 243 254 262 272 279 297 325 338 2 5 7 7 11 14 14 10 17 34 42 44 47 51 50 46 42 38 31 28 32 29 25 19 19 17 7 357 344
224 221 222 226 231 236 239 243 249 257 266 272 280 282 299 316 333 341 341 341 356 3 357 352 6 26 37 42 42 36 29 27 20 15 15 18 15 10 8 7 3 357 352 345
225 225 227 232 237 244 246 246 244 250 259 263 273 279 281 286 296 311 319 320 333 340 335 324 323 337 2 21 25 12 5 5 1 358 358 359 358 357 358 352 347 342 341 337
227 229 232 234 238 244 246 248 251 255 260 264 274 277 279 286 289 300 308 310 310 317 327 325 317 332 338 325 341 357 358 355 351 348 343 338 339 340 341 340 338 336 334 334
229 231 233 235 238 244 248 250 255 258 261 266 274 276 280 286 283 288 294 293 294 302 314 320 317 316 336 338 341 343 343 344 341 337 332 327 325 326 328 329 328 327 325 324
230 231 234 238 239 244 249 251 257 260 263 267 270 271 278 284 278 278 281 281 286 292 298 310 315 316 322 325 328 333 327 325 327 327 325 320 317 317 318 319 321 319 319 320
232 231 235 239 242 244 248 251 257 263 268 268 268 269 271 277 275 277 279 275 281 288 290 300 303 301 305 308 313 323 327 316 317 319 318 314 309 309 311 313 316 317 315 314
233 232 234 237 238 243 247 248 254 261 266 268 264 269 275 273 273 274 276 278 281 292 293 296 301 301 299 300 307 310 316 321 319 319 317 310 306 307 309 310 313 314 311 309
236 235 235 237 239 242 246 249 251 257 266 268 264 267 272 272 272 267 274 282 283 288 290 293 299 303 299 295 300 304 303 304 308 310 313 311 310 308 308 306 307 308 307 306
241 240 239 240 242 244 247 249 253 258 265 269 270 269 270 271 270 266 271 279 283 286 285 287 291 296 297 295 296 298 296 295 296 297 298 299 299 300 303 304 305 306 306 304
243 244 242 241 241 241 244 248 252 256 262 266 271 271 268 266 265 262 267 275 281 285 288 286 285 290 294 295 297 297 297 294 291 293 292 291 291 294 296 297 300 302 304 305
245 247 247 244 242 242 243 247 251 256 260 264 268 269 267 264 262 262 265 271 276 280 284 285 285 287 290 293 295 297 299 295 291 291 291 290 288 290 292 293 294 297 301 304
246 247 248 248 247 245 246 249 252 255 258 263 265 267 265 263 259 262 266 271 274 275 280 284 286 287 288 290 292 294 295 291 289 289 290 289 284 287 288 289 291 293 296 300
247 249 250 249 249 247 248 250 252 255 258 261 264 265 262 261 261 263 265 268 272 275 280 284 287 285 284 285 288 290 289 288 288 290 290 288 288 287 287 288 291 293 295 296
249 250 251 251 251 250 249 249 251 253 256 259 260 261 260 261 261 260 263 267 272 275 278 282 286 283 281 284 286 287 287 286 287 287 287 288 289 289 289 291 292 293 296 298
250 251 252 252 251 251 250 249 249 251 252 255 257 259 259 258 260 261 265 268 273 275 274 278 281 281 280 283 286 288 287 287 288 287 285 285 287 288 289 290 291 291 293 296
250 251 252 252 251 251 253 251 249 250 252 252 254 257 258 257 258 262 266 268 271 274 277 275 276 280 281 283 285 286 287 287 288 287 286 287 286 286 286 286 287 288 290 293
249 251 252 252 251 252 252 252 251 252 252 252 253 255 257 258 259 261 266 267 268 272 274 276 276 279 281 283 285 286 286 287 287 286 286 287 286 285 285 286 289 289 290 291
249 250 250 250 251 252 253 252 253 254 255 254 255 257 258 258 258 261 264 265 267 272 272 274 276 279 281 281 283 285 285 286 286 284 284 287 290 289 287 286 287 288 289 291
249 250 250 250 251 252 253 253 254 255 256 257 257 259 258 258 259 261 263 263 264 269 270 273 275 277 280 281 284 286 286 286 287 287 288 289 289 289 287 286 285 285 286 287
248 249 250 251 251 252 253 253 254 256 257 258 258 260 260 260 261 262 262 263 264 266 268 271 274 276 277 280 282 285 287 287 286 288 289 288 288 287 285 284 284 284 285 286
249 250 250 251 252 253 254 254 255 256 258 258 258 260 261 261 261 262 263 263 265 266 268 270 274 277 278 279 281 284 287 288 287 288 288 288 287 287 286 285 285 286 286 286
249 250 252 252 253 254 255 255 256 256 258 259 259 260 261 262 262 262 263 264 266 266 268 270 274 278 279 282 283 283 285 287 288 288 288 287 287 287 286 286 285 285 287 288
250 251 253 254 256 256 255 256 256 256 257 258 258 259 261 261 261 262 262 264 266 268 268 271 273 277 278 280 283 285 287 288 288 287 288 288 287 287 287 287 286 286 286 288
250 251 252 253 254 255 255 255 256 256 257 258 258 259 259 260 260 261 262 265 266 268 268 270 274 277 279 280 282 283 285 287 288 286 286 287 287 286 286 287 287 287 287 287
Height
5908 5910 5910 5911 5912 5913 5913 5913 5913 5913 5913 5912 5912 5912 5912 5911 5911 5911 5910 5909 5908 5907 5906 5905 5905 5904 5903 5903 5902 5901 5900 5900 5899 5898 5898 5897 5896 5896 5895 5894 5893 5892 5891 5890
5907 5908 5910 5910 5911 5911 5912 5913 5913 5913 5912 5912 5912 5912 5912 5911 5911 5911 5910 5909 5908 5907 5906 5905 5905 5904 5904 5903 5903 5902 5901 5900 5900 5899 5898 5898 5897 5896 5896 5895 5894 5892 5891 5890
5905 5908 5908 5909 5910 5910 5911 5911 5912 5912 5912 5911 5911 5912 5912 5911 5911 5910 5910 5909 5908 5908 5907 5905 5905 5904 5904 5904 5903 5902 5902 5901 5900 5899 5899 5898 5897 5897 5896 5895 5894 5892 5891 5890
5903 5905 5906 5907 5908 5909 5909 5910 5910 5910 5910 5910 5911 5911 5911 5910 5910 5910 5909 5909 5908 5908 5907 5905 5904 5904 5904 5903 5903 5902 5902 5901 5900 5900 5899 5898 5897 5896 5895 5894 5893 5892 5891 5890
5901 5903 5904 5905 5907 5907 5908 5908 5908 5909 5909 5910 5910 5910 5911 5910 5910 5910 5909 5908 5908 5907 5906 5905 5904 5903 5903 5903 5903 5902 5901 5901 5900 5899 5898 5898 5897 5895 5894 5893 5892 5891 5890 5889
5898 5900 5901 5903 5904 5905 5905 5906 5906 5907 5907 5908 5909 5908 5909 5909 5909 5909 5908 5907 5907 5906 5905 5904 5903 5903 5903 5903 5902 5901 5901 5900 5899 5898 5897 5896 5896 5894 5893 5892 5891 5890 5889 5888
5895 5897 5898 5900 5901 5903 5903 5904 5905 5905 5905 5906 5907 5906 5908 5907 5907 5907 5907 5906 5906 5905 5905 5904 5903 5903 5902 5902 5901 5901 5900 5899 5898 5897 5896 5895 5894 5893 5892 5891 5890 5889 5887 5886
5892 5894 5896 5897 5898 5900 5901 5902 5903 5903 5903 5904 5904 5904 5906 5906 5905 5905 5905 5905 5905 5904 5903 5903 5902 5902 5901 5901 5900 5899 5898 5898 5897 5896 5895 5894 5892 5891 5890 5889 5888 5887 5886 5884
5888 5891 5892 5893 5895 5897 5897 5898 5900 5900 5900 5900 5901 5902 5904 5904 5904 5903 5903 5903 5903 5902 5902 5901 5901 5900 5900 5899 5899 5898 5897 5896 5895 5894 5893 5892 5891 5890 5889 5888 5886 5885 5884 5882
5884 5887 5889 5890 5891 5892 5894 5895 5896 5897 5897 5897 5898 5899 5901 5901 5901 5901 5901 5901 5901 5900 5900 5900 5899 5898 5898 5897 5896 5895 5894 5893 5892 5891 5891 5890 5888 5887 5886 5886 5884 5883 5881 5879
5880 5882 5885 5886 5887 5889 5890 5892 5892 5893 5894 5894 5894 5898 5898 5898 5899 5899 5899 5899 5899 5898 5898 5898 5897 5897 5896 5895 5894 5892 5891 5890 5889 5888 5887 5886 5886 5885 5884 5883 5881 5880 5879 5877
5876 5878 5879 5882 5883 5884 5886 5887 5889 5890 5890 5890 5891 5896 5895 5896 5896 5896 5896 5897 5897 5896 5896 5896 5895 5894 5893 5892 5890 5889 5888 5887 5886 5885 5884 5883 5882 5882 5881 5879 5878 5877 5876 5874
5871 5873 5874 5877 5880 5881 5881 5883 5884 5886 5886 5886 5887 5892 5891 5892 5892 5893 5893 5894 5894 5893 5893 5893 5892 5891 5890 5888 5887 5885 5884 5883 5882 5881 5880 5880 5879 5878 5877 5876 5874 5873 5872 5870
5866 5867 5870 5872 5874 5875 5877 5878 5880 5881 5881 5882 5884 5885 5887 5887 5888 5889 5890 5890 5890 5890 5889 5889 5888 5887 5886 5885 5883 5882 5880 5879 5878 5878 5877 5876 5875 5874 5873 5871 5870 5869 5867 5866
5860 5861 5863 5866 5868 5870 5872 5873 5874 5876 5877 5878 5880 5880 5882 5883 5884 5885 5885 5886 5886 5885 5885 5884 5884 5883 5882 5881 5880 5878 5877 5876 5875 5874 5873 5872 5871 5870 5869 5867 5865 5864 5863 5861
5853 5855 5857 5859 5862 5863 5865 5867 5869 5870 5872 5873 5874 5876 5877 5878 5879 5880 5881 5881 5881 5881 5880 5879 5879 5878 5877 5876 5875 5874 5873 5872 5871 5870 5868 5867 5866 5865 5864 5863 5861 5860 5858 5856
5846 5849 5851 5853 5855 5856 5858 5861 5863 5865 5866 5867 5868 5871 5872 5873 5874 5875 5875 5875 5875 5875 5874 5873 5873 5873 5872 5871 5870 5869 5868 5867 5866 5865 5864 5862 5861 5860 5858 5857 5856 5854 5853 5851
5840 5842 5843 5845 5848 5849 5854 5855 5857 5859 5860 5862 5863 5864 5865 5867 5868 5869 5869 5869 5870 5869 5868 5868 5867 5867 5867 5866 5865 5864 5863 5862 5860 5859 5857 5856 5855 5853 5852 5851 5849 5848 5847 5845
5832 5834 5836 5838 5839 5841 5846 5848 5850 5852 5854 5856 5857 5858 5859 5860 5861 5862 5863 5863 5863 5863 5862 5862 5862 5861 5861 5860 5859 5858 5857 5856 5854 5852 5851 5849 5848 5846 5845 5843 5842 5841 5839 5838
5824 5826 5828 5830 5832 5834 5839 5841 5842 5846 5847 5849 5850 5851 5852 5853 5854 5857 5856 5856 5856 5856 5856 5855 5855 5855 5854 5854 5853 5852 5850 5849 5847 5845 5843 5842 5840 5838 5837 5836 5835 5833 5832 5831
5815 5817 5819 5822 5823 5826 5831 5833 5835 5838 5841 5842 5842 5843 5844 5846 5847 5849 5849 5849 5849 5849 5849 5849 5849 5848 5847 5846 5845 5844 5843 5841 5839 5837 5835 5834 5832 5830 5829 5828 5826 5825 5824 5823
5806 5808 5811 5813 5815 5820 5822 5825 5827 5829 5831 5833 5834 5835 5836 5838 5839 5840 5841 5841 5841 5841 5842 5842 5841 5841 5840 5839 5838 5837 5835 5834 5831 5829 5827 5826 5824 5822 5820 5819 5818 5817 5816 5815
5798 5800 5802 5805 5809 5811 5813 5815 5817 5819 5822 5824 5825 5827 5828 5829 5830 5831 5832 5833 5833 5833 5833 5833 5833 5833 5832 5830 5829 5828 5827 5825 5823 5821 5819 5818 5816 5814 5812 5811 5810 5808 5807 5806
5789 5791 5794 5796 5799 5802 5804 5806 5808 5810 5812 5814 5816 5818 5819 5820 5821 5822 5823 5824 5824 5824 5824 5824 5824 5824 5823 5822 5821 5819 5818 5816 5815 5813 5811 5809 5807 5805 5804 5802 5801 5800 5798 5797
5780 5782 5784 5787 5790 5793 5795 5797 5798 5800 5802 5804 5806 5808 5810 5811 5812 5813 5814 5815 5815 5815 5815 5815 5815 5814 5814 5813 5812 5811 5809 5807 5806 5804 5802 5800 5799 5797 5795 5794 5792 5791 5790 5788
5771 5774 5776 5779 5781 5783 5786 5787 5789 5791 5793 5795 5797 5798 5800 5801 5802 5803 5805 5805 5806 5806 5806 5806 5806 5806 5805 5805 5804 5802 5800 5799 5797 5795 5793 5792 5790 5788 5786 5785 5784 5782 5781 5779